COSMOS 1275 DEB, 12676

Orbit data source: Space-Track

COSMOS 1275 DEB, 12676 is space debris in LEO originally from a launch on Thu, 04 Jun 1981 UTC launched from the Plesetsk Missile And Space Complex (PKMTR). Debris objects in space refer to the collection of defunct objects orbiting the Earth. Examples of debris include non-operational satellites, rocket bodies, and fragments generated from explosions, collisions, or faulty payload assembly.

Loading next visibility...
COSMOS 1275 DEB details
Identifier
12676, 1981-053AG
Orbit
LEO
Last TLE update13 hours ago
Origin
Flag of CISVMF (CIS)
ManufacturerUnknown
MissionSpacecraft
Bus & MotorUnknown
MassUnknown
Launch date (UTC)
1981-06-04 (44 years ago)
Launch vehicleUnknown
Launch site
Plesetsk Missile And Space Complex (PKMTR)
Object type
Payload
Rocket body
Debris
Shape & HBRUnknown
Radar Cross SectionMedium (>0.1 m² and <1 m²)

Expand to show TLE details & history

TLE from 13 hours ago
0 COSMOS 1275 DEB
1 12676U 81053AG  24360.97959016  .00001319  00000-0  11232-2 0  9995
2 12676  82.9442 166.9846 0044757 190.4002 292.6500 13.86099129186148
Epoch: 2024-12-25T23:30Z
Definitive object data (Epoch: 2024-12-25T23:30:36.589Z)
Latitude56.84824°
Longitude-111.49889°
Altitude939.359 km
Speed7.394 km/s
True Right ascension22h 24m 28s
True Declination56° 41' 40"
Sunlit
Object was in daylight at TLE epoch
Visualization TLE readout
Latitude-82.67862°
Longitude5.55988°
Altitude966.736 km
Speed7.37 km/s
Apparent Right ascension00h 26m 44s
Apparent Declination-66° 46' 00"
Sunlit
Object is in daylight
Visualization observer readout
Local Sidereal Time11:42:38
Azimuth189.388° SSW
Elevation-62.449°
Doppler factor1
Orbital elements
Apogee altitude972.218 km
Perigee altitude906.715 km
Semi-major axis7,317.604 km
Eccentricity0.0044757
Inclination82.9442°
RAAN166.9846°
Arg. of periapsis190.4002°
True anomaly292.17566°
Mean anomaly292.65°
Eccentric anomaly292.41293°
Mean motion3.46729 °/min
BSTAR0.0011232
Orbital period103.83 mins
Loading maneuver chart data...
Loading historical data...
Loading historical data...
Loading historical data...
Loading historical data...
Loading historical data...
Loading historical data...
Loading historical data...

COSMOS 1275 DEB Visibility forecast

Observer location: undefined°, undefined

Span
Click to sort rows by Start time (UTC) header in descending order
Start Az.
Max El. time (UTC)
Max El. Az.
Max El.
End time (UTC)
End Az.
10 mins2024-12-26 12:54:08.146Z223.315° SW2024-12-26 12:59:08.146Z289.811° WNW30.284°2024-12-26 13:04:08.146Z348.326° N
7 mins2024-12-26 22:03:08.146Z34.501° NE2024-12-26 22:06:08.146Z73.689° E21.506°2024-12-26 22:10:08.146Z119.896° SE
9 mins2024-12-26 23:47:08.146Z333.303° NNW2024-12-26 23:51:08.146Z262.171° W36.284°2024-12-26 23:56:08.146Z198.514° SSW
10 mins2024-12-27 11:25:08.146Z158.773° S2024-12-27 11:29:08.146Z105.012° ESE36.937°2024-12-27 11:35:08.146Z19.093° NNE
|